Regional Weather Roundup
Issued by NWS Mt. Holly, NJ

Current Version | Previous Version | Text Only | Print | Product List | Glossary Off
Versions: 1 2 3 4 5 6 7 8 9 10 11 12 13 14 15 16 17 18 19 20 21 22 23 24 25 26 27 28 29

000
ASUS41 KPHI 200012
RWRPHI

REGIONAL WEATHER ROUNDUP
NATIONAL WEATHER SERVICE MOUNT HOLLY NJ
700 PM EST SUN FEB 19 2017

NOTE:  "FAIR" INDICATES FEW OR NO CLOUDS BELOW 12,000 FEET WITH NO
SIGNIFICANT WEATHER AND/OR OBSTRUCTIONS TO VISIBILITY.

 * = STATION DOES NOT REPORT PRECIPITATION (E.G. RAIN, SNOW, ETC.)
        OR FOG.

NJZ015>026-200100-
SOUTHERN NEW JERSEY

CITY           SKY/WX    TMP DP  RH WIND       PRES   REMARKS
POMONA         CLEAR     59  35  40 W6        29.90R
6HR MIN TEMP:  55; 6HR MAX TEMP:  71;

WILDWOOD*      CLEAR     58  42  55 W6        29.92R
MILLVILLE      CLEAR     47  36  65 VRB3      29.91R
WRIGHTSTOWN    CLEAR     58  35  41 NW6       29.88R
MOUNT HOLLY    CLEAR     56  33  42 CALM      29.91R
TRENTON        CLEAR     60  33  36 W3        29.90R
6HR MIN TEMP:  60; 6HR MAX TEMP:  69;


$$
NJZ001>014-200100-
NORTHERN NEW JERSEY

CITY           SKY/WX    TMP DP  RH WIND       PRES   REMARKS
SUSSEX         CLEAR     43  33  68 CALM      29.90R
ANDOVER*         N/A     40  34  79 CALM      29.90R
MORRISTOWN     CLEAR     46  34  61 CALM      29.89R
NEWARK         CLEAR     63  30  28 NW6       29.88R
TETERBORO      CLEAR     59  30  33 CALM      29.88R
CALDWELL       CLEAR     51  31  46 CALM      29.89R
SOMERVILLE     CLEAR     52  34  50 CALM      29.88R
ALLAIRE*       CLEAR     55  31  39 NW5       29.90R
TOMS RIVER*    CLEAR     48  35  60 W3        29.90R

$$
PAZ043-044-047-054-055-060>062-066>071-200100-
EASTERN PENNSYLVANIA

CITY           SKY/WX    TMP DP  RH WIND       PRES   REMARKS
PHILADELPHIA   PTCLDY    65  33  30 W8        29.92R
6HR MIN TEMP:  65; 6HR MAX TEMP:  70;

NORTH PHILA    CLEAR     63  34  33 W3        29.92R
BLUE BELL*     CLEAR     54  36  50 CALM      29.91R
DOYLESTOWN     CLEAR     56  32  40 CALM      29.90R
QUAKERTOWN*    CLEAR     50  36  57 CALM      29.92R
PERKASIE*      FAIR      54  36  50 SW3       29.92R
POTTSTOWN      CLEAR     51  35  54 CALM      29.93R
LANCASTER      CLEAR     56  35  45 W9        29.92R
COATESVILLE    CLEAR     57  34  41 CALM      29.94R
READING        CLEAR     58  37  45 NW3       29.91R
6HR MIN TEMP:  56; 6HR MAX TEMP:  68;

ALLENTOWN      CLEAR     54  34  46 CALM      29.90R
6HR MIN TEMP:  53; 6HR MAX TEMP:  68;

MOUNT POCONO   CLEAR     47  31  53 NW6       29.91R
6HR MIN TEMP:  43; 6HR MAX TEMP:  55;

HAZLETON       CLEAR     52  32  46 W5        29.95R
LEHIGHTON      FAIR      43  34  70 CALM      29.91R
WILKES BARRE   CLEAR     56  30  37 NW9       29.92R

$$
DEZALL-MDZ008-012-015-019-020-200100-
DELAWARE AND EASTERN MARYLAND

CITY           SKY/WX    TMP DP  RH WIND       PRES   REMARKS
WILMINGTON     PTCLDY    61  35  37 W6        29.92R
6HR MIN TEMP:  58; 6HR MAX TEMP:  71;

DOVER          CLEAR     61  44  54 W5        29.91R
GEORGETOWN     CLEAR     60  42  51 W3        29.93R
6HR MIN TEMP:  59; 6HR MAX TEMP:  71;

EASTON         CLEAR     59  41  51 CALM      29.98R
ABERDEEN       CLEAR     60  37  42 W5        29.94R
PATUXENT       CLEAR     54  43  66 NW6       29.95R
OCEAN CITY     CLEAR     59  42  53 W5        29.93R
WALLOPS ISLAND CLEAR     55  46  71 W3        29.95R
CAMBRIDGE      PTCLDY    52  43  71 CALM      29.94S
SALISBURY      CLEAR     58  45  62 W6        29.93R

$$
PAZ001-021-NYZ056-072-MDZ011-DCZ001-200100-
OTHER NEARBY LOCATIONS

CITY           SKY/WX    TMP DP  RH WIND       PRES   REMARKS
HARRISBURG     PTCLDY    55  33  43 NW8       29.94R
STATE COLLEGE  CLEAR     57  32  38 NW14G20   29.98R
WILLIAMSPORT   CLEAR     54  27  35 W6        29.93R
BINGHAMTON     CLEAR     46  30  53 NW8       29.93R
NEW YORK CITY  CLEAR     61  29  29 CALM      29.91R
BALTIMORE      CLEAR     59  40  49 W7        29.95R
WASHINGTON DC  CLEAR     64  40  41 NW8       29.98R

$$




USA.gov is the U.S. government's official web portal to all federal, state and local government web resources and services.